GFSMW_850_spd_132.txt.gz
Wind_Speed
28 36 35 34 33 33 28 23 23 23 23 24 20 15 18 18 14 13 11 13 15 15 11 12 13 9 9 4 6 5 4 2 3 8 8 12 11 11 11 11 13 10 11
31 36 36 36 35 34 29 26 24 21 24 28 22 19 16 14 16 13 15 11 14 14 10 12 12 13 12 8 10 9 6 2 0 6 7 4 4 7 11 13 15 14 15
31 35 38 38 35 35 31 27 23 23 25 27 23 22 17 15 17 15 14 13 14 14 10 8 8 9 14 12 12 12 12 2 3 1 4 2 1 9 9 17 17 10 14
34 33 40 41 39 35 31 26 27 24 24 26 26 23 24 21 19 16 12 17 15 12 10 7 7 6 9 10 7 7 10 1 5 2 3 2 4 6 7 7 10 9 12
34 35 41 43 40 35 31 27 31 29 25 27 25 22 23 19 16 15 15 19 15 13 14 9 9 7 7 13 6 4 4 4 1 3 3 2 1 4 8 8 9 8 9
36 36 32 43 42 37 32 29 30 31 28 29 29 26 23 19 21 19 18 17 17 17 15 12 9 7 9 8 6 5 6 7 5 3 1 2 1 5 8 10 11 10 9
33 36 34 37 44 41 37 33 29 34 32 33 31 25 25 22 17 21 20 19 19 17 18 17 13 11 9 11 11 10 8 8 9 10 9 9 8 9 10 10 12 10 12
31 36 44 32 40 45 41 36 32 29 35 32 34 30 26 26 21 19 20 17 16 14 16 17 14 12 10 11 12 14 12 9 10 11 10 8 9 8 8 8 9 10 8
25 37 42 33 36 46 44 40 36 29 33 35 34 35 30 31 29 22 22 19 17 18 16 17 15 16 15 13 13 13 11 11 12 12 9 9 9 9 11 10 10 9 7
20 28 40 39 40 40 45 42 40 33 30 33 33 36 33 32 30 27 24 23 20 17 17 16 17 17 15 12 14 13 13 14 13 13 13 14 15 13 14 14 14 12 9
23 25 31 39 35 37 42 46 44 38 32 33 30 35 35 35 31 29 26 24 24 22 21 19 17 16 15 16 17 17 15 15 14 15 13 16 18 18 17 15 13 11 14
21 14 12 28 28 38 41 47 46 41 36 33 34 31 34 34 34 32 31 26 27 25 24 23 23 20 18 16 17 18 18 17 17 16 17 17 16 17 16 17 15 15 14
3 10 14 15 13 28 35 39 44 47 41 39 35 32 30 35 36 36 31 29 26 24 23 23 23 20 18 18 17 17 15 16 17 16 17 18 17 17 16 17 16 15 16
5 3 4 8 14 19 24 30 39 42 45 42 38 34 31 33 35 36 33 32 28 26 23 19 18 19 17 15 14 15 14 14 14 14 14 14 15 17 16 15 14 16 18
7 4 2 5 11 13 22 33 35 36 43 41 36 34 31 32 31 30 31 29 27 28 24 18 16 18 17 16 14 13 13 13 11 10 11 13 14 13 13 14 15 17 17
9 8 9 9 15 16 18 18 24 35 43 37 42 38 32 36 34 31 30 30 30 27 22 19 20 19 19 16 14 13 14 13 12 12 13 15 16 16 16 17 17 16 16
7 6 3 4 7 12 19 22 16 22 36 35 42 27 31 31 33 35 33 33 28 28 24 22 21 18 19 18 16 15 13 14 15 17 16 16 18 18 16 14 13 14 13
9 10 7 3 4 8 5 10 15 14 18 35 42 43 37 38 36 39 36 33 30 27 25 24 23 21 22 20 16 16 14 16 18 18 20 18 16 16 15 13 11 9 9
11 7 5 3 4 5 9 11 7 13 15 24 29 34 35 37 42 42 38 35 32 29 26 27 27 24 22 20 16 17 17 18 19 19 17 15 15 15 13 10 10 11 10
9 7 6 4 4 1 6 9 2 10 19 21 34 44 40 27 39 41 39 37 33 30 29 27 24 19 17 13 14 14 17 21 20 15 11 8 5 2 1 4 7 11 13
8 7 7 4 1 1 4 7 10 14 10 16 24 36 34 28 26 33 31 31 27 22 23 18 15 12 11 11 10 7 9 10 8 9 8 7 4 2 0 3 4 4 4
8 7 8 7 5 4 4 3 14 21 21 17 24 34 34 25 22 22 18 22 18 17 16 16 17 16 12 14 14 11 9 10 10 7 5 3 4 4 5 5 5 6 7
1 1 4 6 7 7 10 2 7 10 16 14 24 25 27 27 27 25 22 18 14 14 16 16 19 24 27 21 19 18 12 12 8 6 3 1 2 3 4 5 6 7 8
9 7 4 5 7 7 8 3 4 5 15 17 17 23 27 24 21 18 19 19 18 18 19 19 20 21 18 17 14 10 7 4 2 1 2 3 3 4 4 4 5 7 9
13 12 11 9 9 10 9 7 9 10 16 19 19 17 18 12 20 22 22 19 19 17 17 18 19 16 12 11 10 7 4 4 4 4 3 3 3 4 5 7 8 8 10
14 16 18 18 16 13 14 14 12 14 22 20 20 16 12 17 16 13 15 15 15 14 13 13 10 10 9 8 8 7 6 5 5 6 7 7 7 8 9 9 8 9 10

GFSMW_850_spd_138.txt.gz
Wind_Speed
27 29 26 26 26 22 24 23 23 23 21 21 25 22 20 18 17 13 12 9 12 10 11 11 10 9 9 8 6 6 3 3 4 8 10 10 12 11 12 13 13 14 15
29 30 32 31 30 26 25 26 25 25 23 21 22 18 15 19 16 14 13 11 15 14 13 12 11 10 11 10 8 9 8 7 7 6 8 8 9 11 11 13 11 12 15
33 31 31 32 32 30 28 28 25 26 25 23 23 21 16 17 20 16 14 14 12 12 13 13 10 13 13 13 12 9 10 9 11 7 8 5 5 7 6 6 3 7 10
33 33 30 32 34 31 30 29 28 25 27 25 26 24 20 18 19 16 15 15 13 12 13 13 10 9 9 10 11 11 12 12 8 11 10 8 6 4 5 6 4 7 8
35 37 34 33 33 32 31 31 29 26 26 26 26 25 24 19 15 13 17 14 17 15 16 14 11 9 8 8 9 9 9 9 9 8 10 8 7 6 6 7 10 6 8
31 34 34 32 34 33 34 33 32 28 28 27 27 25 24 22 21 17 14 18 17 17 16 15 13 9 8 6 9 9 8 7 7 6 5 6 5 5 6 11 12 12 13
35 31 36 38 38 37 28 38 33 32 30 29 28 27 26 25 22 20 17 19 18 19 18 16 15 11 10 9 11 11 12 10 10 10 9 9 10 11 11 12 12 14 14
35 33 32 35 38 39 38 37 36 32 32 31 31 29 28 26 25 21 20 19 19 18 18 17 15 14 14 14 12 14 16 14 12 11 12 12 11 12 11 12 12 13 15
31 31 32 35 38 42 40 38 38 36 34 32 33 33 29 29 27 24 21 22 19 18 17 18 17 16 17 16 15 13 14 14 15 15 16 14 12 12 12 11 11 12 15
20 27 29 33 34 39 40 38 30 36 39 37 34 35 33 31 29 27 27 23 21 21 18 19 18 17 16 17 17 16 16 17 17 17 17 16 16 15 15 14 14 15 16
15 21 24 28 34 35 40 38 25 33 38 40 36 33 33 33 32 31 28 29 24 22 22 20 21 20 19 18 19 18 17 19 19 18 18 17 17 16 17 18 17 16 18
12 14 15 20 26 32 36 40 40 30 24 31 40 33 34 35 34 35 33 30 29 25 23 23 21 22 20 18 19 19 18 20 21 19 19 20 18 18 19 19 18 18 17
8 11 13 17 21 25 30 38 44 44 36 30 37 40 35 37 36 38 37 35 31 30 28 28 27 25 23 20 20 22 21 21 21 20 20 21 18 19 17 18 18 18 19
7 8 9 10 12 16 22 28 34 35 39 34 25 40 41 36 36 36 39 38 37 34 31 30 28 26 23 22 21 23 22 21 20 19 20 18 15 17 15 15 15 16 16
6 6 7 8 9 11 12 14 20 29 32 33 37 42 39 32 38 36 36 37 38 38 36 33 30 27 24 22 21 22 22 20 18 16 16 14 14 12 12 13 13 15 16
7 7 7 8 9 10 11 11 14 16 24 32 35 35 43 38 37 40 38 39 38 37 38 36 32 28 26 24 22 22 21 18 17 17 16 14 14 13 14 15 17 18 20
10 10 10 9 6 5 8 11 13 15 19 24 30 34 38 41 48 45 39 42 40 39 39 39 35 31 28 27 24 22 20 17 16 16 16 15 15 15 15 17 19 18 17
11 11 12 11 7 5 6 8 11 14 17 21 26 27 33 37 39 44 41 40 39 39 38 38 37 34 31 29 25 21 20 18 17 17 18 16 16 16 16 16 17 16 15
12 13 13 11 8 6 3 5 7 11 14 18 23 28 29 32 37 45 46 37 37 35 37 35 34 32 30 29 24 22 21 20 21 21 16 15 15 14 16 16 16 15 14
10 11 13 8 7 5 3 5 7 12 18 22 23 24 30 34 34 36 37 37 37 39 37 36 31 31 31 30 26 25 23 22 17 14 14 12 13 12 8 1 4 5 6
6 9 9 8 7 6 5 6 13 18 20 24 28 30 31 35 36 34 45 39 36 34 36 39 34 32 30 27 25 23 19 13 11 11 11 7 4 3 2 4 5 4 5
6 8 8 10 8 6 5 6 10 15 18 20 23 15 12 28 27 27 31 35 33 32 30 38 36 29 25 21 17 14 12 10 9 8 8 4 5 2 4 4 3 5 5
8 8 9 9 9 7 4 1 7 10 14 23 20 8 14 19 20 17 14 24 30 35 36 35 31 25 19 16 15 16 17 17 18 15 8 6 4 7 6 7 7 7 8
7 6 6 4 5 6 7 4 6 8 15 20 24 22 4 13 19 19 14 25 28 31 36 32 28 25 21 20 21 21 22 20 17 14 10 12 9 5 4 3 3 4 5
3 5 5 4 5 10 13 12 8 6 11 16 19 22 25 26 21 20 17 18 26 30 33 37 35 34 27 23 21 14 14 13 16 11 11 11 9 7 6 6 6 6 7
8 6 4 5 5 9 13 14 11 13 11 14 15 18 20 23 27 29 33 32 36 31 31 32 30 28 21 19 17 15 16 16 16 15 14 13 11 9 7 5 5 5 5

GFSMW_850_spd_141.txt.gz
Wind_Speed
20 21 22 22 20 19 20 21 21 23 22 21 19 19 19 16 14 12 10 8 9 7 6 10 7 6 6 6 6 6 5 5 4 6 9 10 11 13 13 13 14 13 13
20 21 23 24 25 23 21 23 22 24 24 21 23 21 18 16 15 14 12 12 10 12 11 10 8 8 8 7 8 7 8 8 6 8 9 7 9 10 10 11 9 6 10
24 22 23 25 26 25 25 24 22 22 24 22 21 22 19 17 18 17 15 12 9 10 11 11 10 8 10 9 9 9 7 9 10 10 8 6 5 12 6 5 5 7 9
25 26 23 24 25 25 26 25 25 23 23 23 23 23 21 16 16 18 13 12 12 9 9 11 11 9 8 8 9 10 10 9 9 9 11 10 9 5 7 8 6 8 9
28 30 29 28 23 24 27 26 25 25 24 24 24 25 24 19 15 17 15 15 14 13 11 12 12 9 8 8 8 6 6 8 8 8 8 8 8 7 6 8 8 10 10
27 28 28 28 25 26 28 28 27 26 26 24 25 25 25 20 19 17 13 16 14 16 14 14 14 11 9 7 6 8 5 5 6 7 6 6 5 5 6 9 11 12 11
29 29 29 31 28 28 27 29 29 29 29 28 28 26 24 23 23 20 18 15 16 18 16 15 15 14 9 8 8 9 9 8 8 9 9 9 10 11 11 11 12 11 12
28 30 32 33 34 30 30 29 29 32 30 30 29 26 24 22 22 21 21 20 19 19 16 17 16 15 15 13 13 12 12 12 12 12 11 11 10 11 12 10 10 12 11
24 27 28 30 32 31 33 35 30 24 31 30 30 28 26 25 23 21 21 21 20 19 16 17 17 16 16 15 14 16 14 13 13 13 14 13 11 12 12 12 11 10 15
17 23 27 31 30 31 31 33 36 32 28 29 28 29 28 28 26 24 23 22 19 20 20 18 18 18 18 17 16 13 14 15 15 14 15 15 14 13 14 13 14 15 14
11 17 24 26 27 27 31 33 32 35 29 23 23 28 31 30 31 29 25 25 22 23 21 23 21 21 20 18 17 16 16 17 17 17 17 16 15 14 14 16 15 16 14
8 11 15 19 22 24 27 28 31 34 32 24 22 25 31 31 32 34 30 26 26 24 25 22 23 22 23 22 21 20 18 18 18 18 18 18 18 17 16 17 17 17 16
5 9 11 15 17 18 20 24 28 33 32 24 15 27 28 29 33 30 33 30 27 27 26 28 26 26 25 22 21 21 20 20 20 20 19 18 17 18 15 15 18 16 15
6 6 6 8 10 12 15 18 22 29 31 36 32 31 29 32 34 34 28 27 29 30 30 30 29 29 28 27 24 23 22 21 22 21 18 17 16 15 14 14 15 14 14
4 5 5 6 8 9 11 12 16 21 26 31 35 38 37 37 36 40 39 32 30 29 29 32 33 30 29 26 26 24 23 21 20 20 17 15 13 16 12 11 13 12 13
4 5 5 5 5 6 8 9 11 14 15 22 28 27 31 36 36 38 40 34 33 32 30 30 33 33 31 29 26 25 24 21 19 18 14 13 13 11 10 12 13 14 16
8 7 8 7 7 7 6 6 8 11 13 16 20 23 26 32 35 35 38 42 38 34 29 32 31 34 33 30 27 25 24 22 18 15 14 14 13 12 12 12 13 15 15
10 10 9 9 8 7 5 5 5 7 10 14 18 22 28 33 36 37 37 38 38 40 39 36 33 32 33 32 28 26 25 22 21 18 16 15 15 14 13 11 12 13 13
9 10 9 8 8 8 6 5 4 5 7 11 15 19 24 31 36 38 38 43 45 44 42 33 34 33 36 33 30 28 25 24 23 21 18 17 16 14 12 11 10 9 9
9 10 10 11 11 10 8 4 4 8 13 17 21 24 27 32 34 35 37 36 35 35 39 35 35 34 32 32 31 28 27 26 24 20 17 14 11 10 9 4 2 4 5
8 7 9 11 10 9 8 6 6 12 17 21 24 27 29 31 34 37 35 33 30 30 35 34 33 31 30 29 29 27 27 26 22 15 11 8 7 6 7 6 4 3 2
8 8 8 9 11 8 6 4 5 12 16 20 22 22 20 16 20 24 32 30 30 34 33 32 33 28 27 29 27 25 22 20 15 12 10 12 11 8 7 6 6 7 8
8 9 10 10 10 10 8 3 4 9 14 16 26 24 15 12 8 15 24 28 27 36 35 35 30 30 32 28 24 19 18 16 16 17 17 14 10 12 13 11 11 10 9
9 9 10 10 8 9 10 8 8 9 8 16 26 30 19 11 5 16 20 18 28 32 36 31 28 33 33 31 27 22 21 22 25 23 19 16 15 12 11 8 6 5 5
4 6 7 8 8 10 13 12 10 10 14 16 23 26 31 30 17 7 1 10 19 23 28 26 32 36 35 30 27 26 26 22 22 24 19 17 12 11 8 6 5 5 5
4 5 5 5 7 11 16 11 11 11 13 17 17 17 25 33 40 34 28 21 14 13 21 31 37 35 32 31 30 31 27 21 22 18 17 16 14 12 9 6 4 3 3

GFSMW_850_spd_147.txt.gz
Wind_Speed
19 19 17 16 15 16 17 18 17 16 16 14 15 14 13 13 13 12 12 10 10 11 13 6 5 4 2 6 1 3 4 2 2 5 10 5 7 6 6 4 5 5 5
21 21 19 18 17 17 17 18 18 18 18 14 14 13 13 12 13 11 9 10 10 10 9 11 7 8 5 5 4 5 3 5 5 7 5 11 5 7 5 3 3 2 4
25 23 21 20 19 19 19 19 20 19 18 15 14 13 13 10 13 12 9 11 11 10 11 9 12 7 10 7 6 5 6 7 2 6 4 10 8 9 7 2 2 4 4
28 23 23 22 22 21 20 20 20 21 19 20 14 15 13 13 12 12 12 13 10 11 11 12 11 11 8 11 8 8 8 7 7 4 5 7 7 7 9 5 6 4 5
28 27 25 23 21 21 21 21 21 22 20 20 19 15 16 13 11 12 13 14 9 11 10 10 11 12 10 10 12 7 10 7 7 7 8 6 6 8 4 9 8 8 9
27 25 23 23 21 21 22 22 23 22 22 20 22 20 16 17 14 13 13 11 13 11 12 11 11 12 11 9 7 8 10 10 9 8 7 7 9 8 9 11 10 11 9
26 30 28 25 24 23 23 23 25 24 24 22 20 22 20 19 17 12 12 13 14 14 15 13 13 11 13 10 9 9 9 9 8 7 8 8 8 8 8 10 12 11 10
24 26 27 27 24 24 25 24 25 23 23 23 22 20 21 18 17 16 15 13 12 15 11 14 12 11 12 13 13 12 8 10 9 11 8 9 9 9 9 10 11 13 12
23 24 25 25 26 24 24 25 25 24 24 24 22 22 21 20 18 17 17 18 13 13 17 17 13 13 14 15 15 9 12 10 10 10 12 11 10 10 11 10 11 9 13
19 22 23 24 22 23 25 23 24 23 23 23 23 21 21 21 21 19 20 17 17 19 16 11 14 13 16 16 16 14 14 15 14 13 14 14 13 12 12 11 10 12 12
16 19 19 20 21 20 22 22 23 25 21 22 23 22 21 21 20 19 21 21 21 20 16 17 16 15 16 17 19 19 17 13 16 16 16 13 15 15 12 12 12 11 12
13 15 17 18 19 18 18 19 20 20 21 21 23 23 22 22 21 21 21 22 22 20 20 21 19 19 19 19 19 16 15 15 16 15 17 18 17 18 16 16 15 13 16
12 12 14 16 16 16 16 16 17 19 19 22 21 20 21 20 21 23 23 23 23 22 20 21 22 21 20 19 18 19 17 18 18 17 16 17 16 17 16 17 16 16 13
13 13 13 13 13 13 13 13 14 15 18 18 21 23 23 24 21 21 24 22 25 26 23 22 22 21 20 20 20 19 18 18 19 18 19 19 19 16 17 16 13 9 12
13 13 13 12 12 11 10 10 10 12 13 16 18 19 23 22 24 23 25 24 26 25 26 24 24 23 22 22 24 22 21 20 19 20 19 20 18 18 18 14 13 12 10
14 14 13 13 12 11 9 8 8 8 10 12 13 16 20 21 22 23 28 28 27 26 27 28 25 26 25 24 26 25 22 23 23 22 21 18 19 19 16 14 13 11 9
14 13 12 12 11 10 9 7 7 7 6 7 10 13 14 18 21 23 28 28 29 29 32 31 31 30 29 28 29 29 28 24 23 24 21 17 14 14 14 15 13 13 12
13 12 11 11 9 9 9 8 6 5 5 4 5 6 8 11 15 18 23 25 27 29 32 33 34 33 32 28 30 33 34 30 26 23 23 18 18 17 14 12 10 7 13
11 11 10 10 9 9 8 8 6 4 3 2 4 7 10 14 16 18 20 22 26 31 33 34 35 35 36 32 32 33 31 28 29 30 25 21 19 19 17 15 14 16 15
11 10 10 9 8 8 5 6 5 3 1 3 7 12 16 20 25 28 30 30 29 29 28 32 34 36 37 35 35 35 31 29 30 30 28 25 22 19 18 16 16 15 12
9 9 9 9 8 6 7 7 4 5 2 5 8 11 16 19 20 24 29 34 34 33 33 32 35 37 36 37 38 35 33 33 35 33 32 29 25 21 19 16 14 15 12
8 8 8 7 9 8 9 8 6 3 5 7 10 14 18 23 25 24 24 26 27 27 29 31 34 35 35 35 37 35 34 37 37 30 22 27 24 19 16 16 14 12 10
7 7 9 7 9 10 12 10 7 8 6 8 13 18 23 31 23 20 20 20 20 21 25 28 31 29 28 30 30 31 32 36 36 34 33 24 24 21 19 17 14 15 16
7 8 8 9 7 10 12 10 9 10 6 11 15 19 29 37 25 16 12 11 12 18 20 25 25 27 25 25 27 28 32 40 46 40 33 34 30 28 28 24 21 19 10
7 8 9 9 9 12 12 14 13 10 7 10 10 16 28 37 38 35 26 14 7 3 9 15 19 24 23 25 27 29 39 41 42 39 41 40 38 35 29 26 19 15 10
7 7 8 10 13 14 17 16 13 10 9 8 9 15 21 27 28 35 39 38 30 18 11 7 2 6 9 15 22 28 30 33 36 38 42 39 35 34 28 21 16 11 10